Weather History for K6A1 - October, 2012

Change the Weather History Date:

Saturday, October 6, 2012

  Actual Average (KMCN) Record (KMCN)
Temperature  
Mean Temperature 76 °F 68 °F  
Max Temperature 87 °F 80 °F 99 °F (1954)
Min Temperature 64 °F 56 °F 41 °F (1961)
Degree Days  
Heating Degree Days 0 2  
Month to date heating degree days 7  
Since 1 July heating degree days 13  
Cooling Degree Days 10 5  
Month to date cooling degree days 32  
Year to date cooling degree days 2082  
Growing Degree Days 26 (Base 50)    
Moisture  
Dew Point 64 °F    
Average Humidity 71    
Maximum Humidity 100    
Minimum Humidity 33    
Precipitation  
Precipitation 0.00 in 0.10 in 1.06 in (1934)
Month to date precipitation 0.62  
Year to date precipitation 36.15  
Sea Level Pressure  
Sea Level Pressure 30.00 in    
Wind  
Wind Speed 2 mph ()    
Max Wind Speed 9 mph    
Max Gust Speed -    
Visibility 8.3 miles    
Events      
T = Trace of Precipitation, MM = Missing Value Source: Averaged Metar Reports

Daily Weather History Graph

Daily Weather History Graph

Search for Another Location

Airport or City:

Trip Planner

Search our weather history database for the weather conditions in past years. The results will help you decide how hot, cold, wet, or windy it might be!

Date:

Astronomy

Oct. 06, 2012 Rise Set
Actual Time 7:34 AM EDT 7:14 PM EDT
Civil Twilight 7:10 AM EDT 7:39 PM EDT
Nautical Twilight 6:41 AM EDT 8:07 PM EDT
Astronomical Twilight 6:13 AM EDT 8:36 PM EDT
Moon 11:43 PM EDT (10/6) 1:13 PM EDT (10/6)
Length of Visible Light 12h 28m
Length of Day
11h 39m
Waning Gibbous, 65% of the Moon is Illuminated
Oct 6
Waning Gibbous
Oct 8
Last Quarter
Oct 15
New
Oct 21
First Quarter
Oct 29
Full

Hourly Weather History & Observations

Time (EDT) Temp. Heat Index Dew Point Humidity Pressure Visibility Wind Dir Wind Speed Gust Speed Precip Events Conditions
12:35 AM 69.8 °F - 69.8 °F 100% 30.06 in 10.0 mi Calm Calm - N/A   Unknown
12:55 AM 68.0 °F - 68.0 °F 100% 30.06 in 10.0 mi Calm Calm - N/A   Unknown
1:15 AM 68.0 °F - 68.0 °F 100% 30.06 in 7.0 mi Calm Calm - N/A   Unknown
1:35 AM 68.0 °F - 68.0 °F 100% 30.06 in 7.0 mi NW 3.5 mph - N/A   Unknown
1:55 AM 68.0 °F - 68.0 °F 100% 30.06 in 7.0 mi Calm Calm - N/A   Unknown
2:15 AM 68.0 °F - 68.0 °F 100% 30.06 in 7.0 mi Calm Calm - N/A   Unknown
2:35 AM 68.0 °F - 68.0 °F 100% 30.05 in 7.0 mi Calm Calm - N/A   Unknown
2:55 AM 68.0 °F - 68.0 °F 100% 30.04 in 7.0 mi West 3.5 mph - N/A   Unknown
3:15 AM 68.0 °F - 68.0 °F 100% 30.03 in 7.0 mi West 3.5 mph - N/A   Unknown
3:35 AM 68.0 °F - 68.0 °F 100% 30.02 in 5.0 mi West 3.5 mph - N/A   Mist
3:55 AM 69.8 °F - 69.8 °F 100% 30.01 in 7.0 mi West 3.5 mph - N/A   Unknown
4:15 AM 69.8 °F - 69.8 °F 100% 30.01 in 7.0 mi West 3.5 mph - N/A   Unknown
4:35 AM 69.8 °F - 69.8 °F 100% 30.00 in 7.0 mi West 3.5 mph - N/A   Unknown
4:55 AM 68.0 °F - 68.0 °F 100% 30.00 in 7.0 mi Calm Calm - N/A   Unknown
5:15 AM 66.2 °F - 66.2 °F 100% 30.00 in 5.0 mi Calm Calm - N/A   Mist
5:35 AM 66.2 °F - 66.2 °F 100% 30.01 in 3.0 mi Calm Calm - N/A   Mist
5:55 AM 64.4 °F - 64.4 °F 100% 30.02 in 2.0 mi Calm Calm - N/A   Mist
6:15 AM 64.4 °F - 64.4 °F 100% 30.02 in 1.8 mi Calm Calm - N/A   Mist
6:35 AM 66.2 °F - 66.2 °F 100% 30.02 in 5.0 mi Calm Calm - N/A   Mist
6:55 AM 68.0 °F - 68.0 °F 100% 30.03 in 5.0 mi WNW 3.5 mph - N/A   Mist
7:15 AM 68.0 °F - 68.0 °F 100% 30.03 in 5.0 mi NW 3.5 mph - N/A   Mist
7:35 AM 68.0 °F - 68.0 °F 100% 30.03 in 4.0 mi Calm Calm - N/A   Mist
7:55 AM 68.0 °F - 68.0 °F 100% 30.03 in 2.0 mi Calm Calm - N/A   Mist
8:15 AM 69.8 °F - 69.8 °F 100% 30.04 in 4.0 mi NW 4.6 mph - N/A   Mist
8:35 AM 69.8 °F - 69.8 °F 100% 30.04 in 5.0 mi NW 3.5 mph - N/A   Mist
8:55 AM 71.6 °F - 71.6 °F 100% 30.04 in 7.0 mi NNW 3.5 mph - N/A   Unknown
9:35 AM 73.4 °F - 71.6 °F 94% 30.04 in 10.0 mi NNW 5.8 mph - N/A   Unknown
10:15 AM 77.0 °F - 71.6 °F 83% 30.04 in 10.0 mi North 3.5 mph - N/A   Unknown
10:35 AM 78.8 °F - 71.6 °F 78% 30.04 in 10.0 mi Calm Calm - N/A   Unknown
10:55 AM 80.6 °F 84.6 °F 71.6 °F 74% 30.04 in 10.0 mi North 5.8 mph - N/A   Unknown
11:15 AM 80.6 °F 83.9 °F 69.8 °F 70% 30.04 in 10.0 mi North 4.6 mph - N/A   Unknown
11:35 AM 82.4 °F 84.6 °F 66.2 °F 58% 30.04 in 10.0 mi NNW 8.1 mph - N/A   Unknown
11:55 AM 82.4 °F 83.9 °F 64.4 °F 54% 30.04 in 10.0 mi WNW 5.8 mph - N/A   Unknown
12:15 PM 82.4 °F 83.9 °F 64.4 °F 54% 30.03 in 10.0 mi NW 5.8 mph - N/A   Unknown
12:35 PM 84.2 °F 85.0 °F 62.6 °F 48% 30.02 in 10.0 mi WNW 5.8 mph - N/A   Unknown
12:55 PM 84.2 °F 85.0 °F 62.6 °F 48% 30.02 in 10.0 mi NW 9.2 mph - N/A   Unknown
1:15 PM 84.2 °F 85.0 °F 62.6 °F 48% 30.01 in 10.0 mi NNW 6.9 mph - N/A   Unknown
1:35 PM 86.0 °F 86.6 °F 62.6 °F 45% 30.00 in 10.0 mi NNW 8.1 mph - N/A   Unknown
1:55 PM 86.0 °F 86.1 °F 60.8 °F 43% 29.99 in 10.0 mi WNW 6.9 mph - N/A   Unknown
2:15 PM 86.0 °F 86.1 °F 60.8 °F 43% 29.98 in 10.0 mi NNW 6.9 mph - N/A   Unknown
2:35 PM 87.8 °F 86.5 °F 57.2 °F 35% 29.97 in 10.0 mi West 4.6 mph - N/A   Unknown
2:55 PM 87.8 °F 87.1 °F 59.0 °F 38% 29.96 in 10.0 mi WNW 4.6 mph - N/A   Unknown
3:15 PM 86.0 °F 84.9 °F 57.2 °F 37% 29.95 in 10.0 mi SW 3.5 mph - N/A   Unknown
3:35 PM 87.8 °F 86.5 °F 57.2 °F 35% 29.94 in 10.0 mi West 3.5 mph - N/A   Unknown
3:55 PM 87.8 °F 87.1 °F 59.0 °F 38% 29.94 in 10.0 mi NW 5.8 mph - N/A   Unknown
4:15 PM 87.8 °F 86.5 °F 57.2 °F 35% 29.93 in 10.0 mi NW 5.8 mph - N/A   Unknown
4:35 PM 87.8 °F 86.1 °F 55.4 °F 33% 29.92 in 10.0 mi Calm Calm - N/A   Unknown
4:55 PM 87.8 °F 86.5 °F 57.2 °F 35% 29.92 in 10.0 mi Calm Calm - N/A   Unknown
5:15 PM 87.8 °F 86.1 °F 55.4 °F 33% 29.92 in 10.0 mi North 4.6 mph - N/A   Unknown
5:35 PM 86.0 °F 84.5 °F 55.4 °F 35% 29.93 in 10.0 mi NNW 4.6 mph - N/A   Unknown
5:55 PM 86.0 °F 84.5 °F 55.4 °F 35% 29.93 in 10.0 mi NNW 5.8 mph - N/A   Unknown
6:15 PM 86.0 °F 85.4 °F 59.0 °F 40% 29.94 in 10.0 mi NNW 4.6 mph - N/A   Unknown
6:35 PM 82.4 °F 82.9 °F 60.8 °F 48% 29.94 in 10.0 mi NW 4.6 mph - N/A   Unknown
6:55 PM 80.6 °F 81.8 °F 62.6 °F 54% 29.94 in 10.0 mi Calm Calm - N/A   Unknown
7:15 PM 80.6 °F 81.8 °F 62.6 °F 54% 29.95 in 10.0 mi WNW 3.5 mph - N/A   Unknown
7:35 PM 78.8 °F - 62.6 °F 57% 29.95 in 10.0 mi NW 4.6 mph - N/A   Unknown
7:55 PM 77.0 °F - 64.4 °F 65% 29.95 in 10.0 mi NW 3.5 mph - N/A   Unknown
8:15 PM 77.0 °F - 62.6 °F 61% 29.96 in 10.0 mi WNW 4.6 mph - N/A   Unknown
8:35 PM 77.0 °F - 62.6 °F 61% 29.96 in 10.0 mi WNW 4.6 mph - N/A   Unknown
8:55 PM 77.0 °F - 62.6 °F 61% 29.97 in 10.0 mi WNW 4.6 mph - N/A   Unknown
9:15 PM 77.0 °F - 62.6 °F 61% 29.97 in 10.0 mi WNW 3.5 mph - N/A   Unknown
9:35 PM 77.0 °F - 62.6 °F 61% 29.97 in 10.0 mi West 3.5 mph - N/A   Unknown
9:55 PM 77.0 °F - 62.6 °F 61% 29.98 in 10.0 mi WNW 3.5 mph - N/A   Unknown
10:15 PM 77.0 °F - 62.6 °F 61% 29.98 in 10.0 mi WNW 4.6 mph - N/A   Unknown
10:35 PM 77.0 °F - 62.6 °F 61% 29.98 in 10.0 mi West 3.5 mph - N/A   Unknown